Location: Colle Santa Colomba
(42.0333°N, 12.5667°E)
Time: 21:36:50
(UTC+00:00)

Cosmos 2123 Rocket - Pass Details

Date: 25 October 2021
Orbit: 961 x 992 km, 82.9° (Epoch: 04 December)

Event Time Altitude Azimuth Distance (km) Brightness Sun altitude
Rises 16:34:55 0° 357° (N) 3,715 6.9 -4.8°
Reaches altitude 10° 16:37:34 10° 3° (N) 2,760 6.2 -5.3°
Maximum altitude 16:43:40 48° 77° (ENE) 1,274 4.3 -6.4°
Drops below altitude 10° 16:49:41 10° 151° (SSE) 2,726 6.2 -7.5°
Sets 16:52:16 0° 157° (SSE) 3,665 6.9 -8.0°
